Lansing, MI

10:01 AM EDT on June 23, 2017 (GMT -0400)
Capital City

Weather History for KLAN - November, 2013

Change the Weather History Date:

Saturday, November 23, 2013

  Actual Average Record
Temperature  
Mean Temperature 22 °F 37 °F  
Max Temperature 27 °F 43 °F 67 °F (1999)
Min Temperature 16 °F 30 °F -3 °F (1869)
Degree Days  
Heating Degree Days 43 28  
Month to date heating degree days 571 553  
Since 1 July heating degree days 1173 1203  
Cooling Degree Days 0 0  
Month to date cooling degree days 0 0  
Year to date cooling degree days 661 625  
Moisture  
Dew Point 14 °F    
Average Humidity 65    
Maximum Humidity 88    
Minimum Humidity 42    
Precipitation  
Precipitation T in 0.10 in 0.92 in (2014)
Month to date precipitation 2.11 2.19  
Year to date precipitation 39.56 29.31  
Snow  
Snow T in 0.20 in 3.70 in (2005)
Month to date snowfall 0.4 2.0  
Since 1 July snowfall 0.4 2.4  
Since 1 September snowfall 0.4 2.4  
Snow Depth 0.00 in    
Sea Level Pressure  
Sea Level Pressure 30.41 in    
Wind  
Wind Speed 13 mph (NW)    
Max Wind Speed 23 mph    
Max Gust Speed 31 mph    
Visibility 8 miles    
Events Snow    
T = Trace of Precipitation, MM = Missing Value Source: NWS Daily Summary

Daily Weather History Graph

Daily Weather History Graph

Search for Another Location

Airport or City:

Trip Planner

Search our weather history database for the weather conditions in past years. The results will help you decide how hot, cold, wet, or windy it might be!

Date:

Astronomy

Nov. 23, 2013 Rise Set
Actual Time 7:40 AM EST 5:09 PM EST
Civil Twilight 7:09 AM EST 5:40 PM EST
Nautical Twilight 6:34 AM EST 6:14 PM EST
Astronomical Twilight 6:00 AM EST 6:48 PM EST
Moon 10:40 PM EST 11:54 AM EST
Length of Visible Light 10h 30m
Length of Day
9h 28m
Waning Gibbous, 70% of the Moon is Illuminated
Nov 23
Waning Gibbous
Nov 25
Last Quarter
Dec 2
New
Dec 9
First Quarter
Dec 17
Full

Hourly Weather History & Observations

Time (EST) Temp. Windchill Dew Point Humidity Pressure Visibility Wind Dir Wind Speed Gust Speed Precip Events Conditions
12:53 AM 24.1 °F 17.0 °F 21.0 °F 88% 30.38 in 10.0 mi SW 5.8 mph - N/A   Clear
1:13 AM 26.6 °F 18.2 °F 21.2 °F 80% 30.34 in 10.0 mi SW 8.1 mph - N/A   Mostly Cloudy
1:53 AM 25.0 °F 16.3 °F 21.9 °F 88% 30.35 in 10.0 mi SW 8.1 mph - N/A   Mostly Cloudy
2:13 AM 26.6 °F 18.2 °F 21.2 °F 80% 30.31 in 10.0 mi SW 8.1 mph - N/A   Partly Cloudy
2:53 AM 26.1 °F 17.6 °F 21.9 °F 84% 30.33 in 10.0 mi WSW 8.1 mph - N/A   Clear
3:53 AM 27.0 °F 18.0 °F 21.9 °F 81% 30.32 in 10.0 mi WSW 9.2 mph - N/A   Clear
4:53 AM 27.0 °F 19.5 °F 21.0 °F 78% 30.30 in 10.0 mi West 6.9 mph - N/A   Clear
5:53 AM 27.0 °F 18.7 °F 19.0 °F 72% 30.31 in 10.0 mi West 8.1 mph - N/A   Mostly Cloudy
6:53 AM 27.0 °F 16.7 °F 19.0 °F 72% 30.32 in 10.0 mi WNW 11.5 mph - N/A   Overcast
7:53 AM 27.0 °F 16.7 °F 19.0 °F 72% 30.32 in 10.0 mi WNW 11.5 mph - N/A   Overcast
8:17 AM 26.6 °F 14.7 °F 19.4 °F 74% 30.29 in 1.8 mi NNW 15.0 mph 21.9 mph 0.00 in Snow Light Snow
8:24 AM 26.6 °F 13.8 °F 19.4 °F 74% 30.30 in 1.0 mi NNW 17.3 mph 27.6 mph 0.00 in Snow Light Snow
8:31 AM 26.6 °F 14.3 °F 19.4 °F 74% 30.31 in 1.5 mi NNW 16.1 mph 26.5 mph 0.00 in Snow Light Snow
8:40 AM 24.8 °F 11.9 °F 17.6 °F 74% 30.31 in 4.0 mi NW 16.1 mph 27.6 mph 0.00 in Snow Light Snow
8:53 AM 25.0 °F 10.6 °F 12.9 °F 60% 30.35 in 8.0 mi NNW 20.7 mph 31.1 mph 0.00 in Snow Light Snow
9:53 AM 26.1 °F 15.0 °F 12.9 °F 58% 30.37 in 10.0 mi North 12.7 mph 26.5 mph 0.00 in   Overcast
10:53 AM 26.1 °F 13.1 °F 10.9 °F 53% 30.40 in 10.0 mi NW 17.3 mph 25.3 mph N/A   Scattered Clouds
11:53 AM 25.0 °F 11.7 °F 9.0 °F 51% 30.40 in 10.0 mi NW 17.3 mph 29.9 mph N/A   Mostly Cloudy
12:53 PM 25.0 °F 11.7 °F 8.1 °F 49% 30.40 in 10.0 mi NW 17.3 mph 27.6 mph N/A   Overcast
1:53 PM 24.1 °F 9.4 °F 6.1 °F 46% 30.42 in 9.0 mi NW 20.7 mph 31.1 mph 0.00 in   Mostly Cloudy
2:53 PM 24.1 °F 11.0 °F 5.0 °F 44% 30.42 in 10.0 mi NNW 16.1 mph 23.0 mph N/A   Overcast
3:53 PM 25.0 °F 13.6 °F 6.1 °F 45% 30.45 in 10.0 mi North 12.7 mph 25.3 mph 0.00 in   Mostly Cloudy
4:11 PM 21.2 °F 6.8 °F 12.2 °F 68% 30.42 in 1.8 mi NNW 17.3 mph 26.5 mph 0.00 in Snow Light Snow
4:15 PM 19.4 °F 6.0 °F 14.0 °F 80% 30.42 in 1.0 mi NNW 13.8 mph 26.5 mph 0.00 in Snow Light Snow
4:22 PM 21.2 °F 5.6 °F 12.2 °F 68% 30.43 in 2.5 mi NNW 20.7 mph 31.1 mph 0.00 in Snow Light Snow
4:25 PM 19.4 °F 5.0 °F 12.2 °F 74% 30.43 in 1.2 mi NNW 16.1 mph 31.1 mph 0.00 in Snow Light Snow
4:37 PM 19.4 °F 4.5 °F 10.4 °F 68% 30.43 in 4.0 mi NW 17.3 mph 21.9 mph 0.00 in Snow Light Snow
4:49 PM 19.4 °F 4.1 °F 8.6 °F 63% 30.44 in 9.0 mi NW 18.4 mph 26.5 mph 0.00 in   Scattered Clouds
4:53 PM 19.9 °F 6.7 °F 7.0 °F 57% 30.49 in 10.0 mi NW 13.8 mph 26.5 mph 0.00 in   Scattered Clouds
5:53 PM 19.9 °F 4.8 °F 5.0 °F 52% 30.51 in 10.0 mi NW 18.4 mph 28.8 mph N/A   Partly Cloudy
6:53 PM 19.0 °F 5.6 °F 9.0 °F 65% 30.53 in 10.0 mi WNW 13.8 mph 19.6 mph N/A   Clear
7:53 PM 18.0 °F 3.1 °F 8.1 °F 65% 30.54 in 10.0 mi NW 16.1 mph 23.0 mph N/A   Clear
8:53 PM 17.1 °F 5.8 °F 8.1 °F 68% 30.57 in 10.0 mi NW 9.2 mph - N/A   Clear
9:53 PM 17.1 °F 3.6 °F 9.0 °F 71% 30.56 in 10.0 mi NW 12.7 mph - N/A   Clear
10:53 PM 16.0 °F 3.6 °F 9.0 °F 74% 30.57 in 10.0 mi NW 10.4 mph 19.6 mph N/A   Clear
11:53 PM 16.0 °F 2.3 °F 9.0 °F 74% 30.58 in 10.0 mi WNW 12.7 mph - N/A   Clear